| time (UTC) | temp F | wind direction | speed knots | gust knots | rain 1hr in | rain 24hr in | rain mn in | humidity % | barometer mb |
| 20260506183046 | 44 | 167 | 7.0 | 13.0 | 0.10 | 1.14 | 0.97 | 94 | 1006.0 |
| 20260506181558 | 45 | 181 | 5.2 | 11.3 | 0.12 | 1.12 | 0.95 | 95 | 1005.9 |
| 20260506180040 | 46 | 170 | 3.5 | 10.4 | 0.13 | 1.10 | 0.92 | 95 | 1005.7 |
| 20260506174536 | 47 | 97 | 1.7 | 3.5 | 0.15 | 1.07 | 0.89 | 96 | 1005.7 |
| 20260506173043 | 47 | 201 | 2.6 | 5.2 | 0.16 | 1.05 | 0.87 | 96 | 1006.0 |
| 20260506171535 | 47 | 55 | 0.9 | 5.2 | 0.13 | 1.01 | 0.83 | 96 | 1005.9 |
| 20260506170030 | 47 | 263 | 0.9 | 2.6 | 0.11 | 0.97 | 0.79 | 96 | 1005.9 |
| 20260506164530 | 47 | 120 | 0.0 | 0.9 | 0.09 | 0.92 | 0.74 | 96 | 1006.0 |
| 20260506163030 | 46 | 121 | 0.0 | 1.7 | 0.11 | 0.89 | 0.71 | 96 | 1006.1 |
| 20260506161530 | 46 | 101 | 0.0 | 1.7 | 0.15 | 0.88 | 0.70 | 96 | 1005.9 |
| 20260506160036 | 46 | 161 | 0.0 | 2.6 | 0.17 | 0.86 | 0.68 | 95 | 1006.2 |
| 20260506154525 | 46 | 139 | 0.0 | 3.5 | 0.17 | 0.83 | 0.65 | 95 | 1006.4 |
| 20260506153021 | 47 | 117 | 0.9 | 2.6 | 0.16 | 0.78 | 0.60 | 95 | 1006.7 |
| 20260506151521 | 47 | 101 | 0.0 | 0.9 | 0.16 | 0.73 | 0.55 | 95 | 1006.8 |
| 20260506150019 | 47 | 69 | 0.0 | 1.7 | 0.16 | 0.69 | 0.51 | 95 | 1006.8 |
| 20260506144518 | 48 | 109 | 0.0 | 0.0 | 0.15 | 0.66 | 0.48 | 96 | 1007.1 |
| 20260506143017 | 48 | 110 | 0.0 | 0.9 | 0.13 | 0.62 | 0.44 | 95 | 1007.4 |
| 20260506141516 | 48 | 110 | 0.0 | 0.9 | 0.10 | 0.56 | 0.39 | 95 | 1007.3 |
| 20260506140014 | 48 | 110 | 0.9 | 3.5 | 0.08 | 0.53 | 0.35 | 95 | 1007.1 |
| 20260506134510 | 49 | 109 | 0.0 | 1.7 | 0.08 | 0.51 | 0.33 | 95 | 1007.1 |
| 20260506133011 | 49 | 110 | 0.9 | 2.6 | 0.10 | 0.49 | 0.31 | 96 | 1006.8 |
| 20260506131532 | 50 | 84 | 0.0 | 0.9 | 0.11 | 0.47 | 0.28 | 96 | 1007.0 |
| 20260506130007 | 50 | 120 | 0.0 | 3.5 | 0.10 | 0.45 | 0.27 | 96 | 1006.9 |
| 20260506124504 | 50 | 319 | 0.0 | 1.7 | 0.09 | 0.43 | 0.25 | 96 | 1007.0 |
| 20260506123004 | 50 | 335 | 0.0 | 1.7 | 0.06 | 0.39 | 0.21 | 96 | 1007.4 |
| 20260506121502 | 50 | 56 | 0.0 | 1.7 | 0.03 | 0.36 | 0.18 | 96 | 1007.4 |
| 20260506120100 | 50 | 102 | 0.0 | 1.7 | 0.02 | 0.35 | 0.17 | 96 | 1007.2 |
| 20260506114600 | 51 | 141 | 0.0 | 0.9 | 0.01 | 0.34 | 0.16 | 97 | 1007.2 |
| 20260506113059 | 51 | 141 | 0.0 | 0.9 | 0.01 | 0.33 | 0.15 | 97 | 1007.0 |
| 20260506111559 | 51 | 141 | 0.0 | 1.7 | 0.01 | 0.33 | 0.15 | 97 | 1006.8 |
| 20260506110104 | 51 | 141 | 0.0 | 1.7 | 0.01 | 0.33 | 0.15 | 97 | 1007.1 |
| 20260506104558 | 51 | 141 | 0.0 | 1.7 | 0.01 | 0.33 | 0.15 | 97 | 1007.2 |
| 20260506103056 | 51 | 208 | 0.0 | 0.0 | 0.01 | 0.32 | 0.14 | 97 | 1007.0 |
| 20260506101555 | 51 | 207 | 0.0 | 0.0 | 0.01 | 0.32 | 0.14 | 97 | 1006.8 |
| 20260506100054 | 51 | 208 | 0.0 | 0.0 | 0.02 | 0.32 | 0.14 | 97 | 1006.5 |
| 20260506094619 | 51 | 207 | 0.0 | 1.7 | 0.02 | 0.32 | 0.14 | 96 | 1006.5 |
| 20260506093051 | 51 | 164 | 0.0 | 2.6 | 0.01 | 0.31 | 0.13 | 96 | 1006.6 |
| 20260506091550 | 52 | 98 | 0.0 | 0.9 | 0.01 | 0.31 | 0.13 | 97 | 1006.8 |
| 20260506090048 | 51 | 99 | 0.0 | 1.7 | 0.00 | 0.30 | 0.12 | 96 | 1006.9 |
| 20260506084547 | 51 | 139 | 0.0 | 0.9 | 0.00 | 0.30 | 0.12 | 96 | 1006.9 |
| 20260506083047 | 51 | 139 | 0.0 | 0.9 | 0.00 | 0.30 | 0.12 | 96 | 1007.2 |
| 20260506081544 | 52 | 139 | 0.0 | 0.9 | 0.00 | 0.30 | 0.12 | 96 | 1007.0 |
| 20260506073040 | 52 | 56 | 0.0 | 0.0 | 0.00 | 0.30 | 0.12 | 95 | 1007.6 |
| 20260506071539 | 52 | 56 | 0.0 | 0.9 | 0.00 | 0.30 | 0.12 | 95 | 1007.6 |
| 20260506061534 | 53 | 57 | 0.0 | 0.9 | 0.00 | 0.30 | 0.12 | 95 | 1007.5 |
| 20260506044522 | 54 | 126 | 0.0 | 1.7 | 0.12 | 0.30 | 0.12 | 91 | 1008.0 |
| 20260506043019 | 55 | 233 | 0.0 | 5.2 | 0.09 | 0.27 | 0.09 | 88 | 1008.1 |
| 20260506041517 | 56 | 188 | 1.7 | 3.5 | 0.01 | 0.19 | 0.01 | 85 | 1008.0 |
| 20260506040011 | 57 | 153 | 1.7 | 3.5 | 0.00 | 0.18 | 0.00 | 82 | 1007.5 |
| 20260506034511 | 58 | 153 | 1.7 | 4.3 | 0.00 | 0.18 | 0.18 | 84 | 1007.5 |
| 20260506033009 | 58 | 211 | 1.7 | 8.7 | 0.00 | 0.18 | 0.18 | 84 | 1007.5 |
| 20260506031508 | 58 | 125 | 1.7 | 2.6 | 0.00 | 0.18 | 0.18 | 87 | 1007.3 |
| 20260506030016 | 58 | 128 | 0.0 | 2.6 | 0.00 | 0.18 | 0.18 | 86 | 1006.9 |
| 20260506024516 | 59 | 75 | 0.0 | 1.7 | 0.00 | 0.18 | 0.18 | 84 | 1007.1 |
| 20260506023003 | 60 | 74 | 0.0 | 0.9 | 0.00 | 0.18 | 0.18 | 82 | 1006.9 |
| 20260506021502 | 61 | 78 | 0.9 | 5.2 | 0.00 | 0.18 | 0.18 | 82 | 1006.5 |
| 20260506020100 | 61 | 332 | 0.0 | 1.7 | 0.00 | 0.18 | 0.18 | 80 | 1006.3 |
| 20260506014558 | 61 | 100 | 0.9 | 7.0 | 0.00 | 0.18 | 0.18 | 80 | 1006.3 |
| 20260506013058 | 60 | 112 | 1.7 | 3.5 | 0.00 | 0.18 | 0.18 | 83 | 1006.3 |
| 20260506011558 | 60 | 322 | 1.7 | 3.5 | 0.00 | 0.18 | 0.18 | 82 | 1006.0 |
| 20260506010056 | 61 | 154 | 0.9 | 2.6 | 0.00 | 0.18 | 0.18 | 80 | 1005.9 |
| 20260506004556 | 61 | 115 | 0.0 | 3.5 | 0.00 | 0.18 | 0.18 | 79 | 1005.5 |
| 20260506003057 | 62 | 333 | 0.9 | 3.5 | 0.00 | 0.18 | 0.18 | 74 | 1005.1 |
| 20260506001607 | 64 | 129 | 0.9 | 7.0 | 0.00 | 0.18 | 0.18 | 71 | 1005.1 |
| 20260506000054 | 63 | 331 | 2.6 | 4.3 | 0.00 | 0.18 | 0.18 | 74 | 1005.2 |
| 20260505234555 | 63 | 235 | 1.7 | 4.3 | 0.00 | 0.18 | 0.18 | 73 | 1005.2 |
| 20260505233052 | 62 | 343 | 1.7 | 5.2 | 0.00 | 0.18 | 0.18 | 77 | 1005.0 |
| 20260505231601 | 63 | 314 | 0.9 | 2.6 | 0.00 | 0.18 | 0.18 | 73 | 1004.9 |
| 20260505230057 | 63 | 344 | 2.6 | 4.3 | 0.00 | 0.18 | 0.18 | 76 | 1004.9 |
| 20260505224552 | 64 | 269 | 1.7 | 3.5 | 0.00 | 0.18 | 0.18 | 71 | 1004.8 |
| 20260505223050 | 65 | 278 | 0.0 | 2.6 | 0.01 | 0.18 | 0.18 | 73 | 1005.2 |
| 20260505221550 | 64 | 301 | 0.9 | 3.5 | 0.01 | 0.18 | 0.18 | 70 | 1004.7 |
| 20260505220048 | 62 | 328 | 1.7 | 5.2 | 0.01 | 0.18 | 0.18 | 78 | 1004.4 |
| 20260505214548 | 63 | 321 | 2.6 | 4.3 | 0.01 | 0.18 | 0.18 | 75 | 1004.6 |
| 20260505213055 | 63 | 262 | 3.5 | 8.7 | 0.00 | 0.17 | 0.17 | 74 | 1005.1 |
| 20260505211550 | 63 | 217 | 0.9 | 13.0 | 0.00 | 0.17 | 0.17 | 77 | 1005.0 |
| 20260505210046 | 63 | 136 | 5.2 | 14.8 | 0.00 | 0.17 | 0.17 | 77 | 1004.7 |
| 20260505204544 | 61 | 170 | 0.0 | 1.7 | 0.01 | 0.17 | 0.17 | 89 | 1004.2 |
| 20260505203045 | 60 | 298 | 0.0 | 1.7 | 0.04 | 0.17 | 0.17 | 89 | 1003.2 |
| 20260505201546 | 61 | 284 | 0.0 | 5.2 | 0.06 | 0.17 | 0.17 | 83 | 1003.2 |
| 20260505200044 | 62 | 251 | 1.7 | 7.8 | 0.17 | 0.17 | 0.17 | 79 | 1003.4 |
| 20260505194542 | 61 | 326 | 0.9 | 6.1 | 0.16 | 0.16 | 0.16 | 83 | 1005.3 |
| 20260505193040 | 62 | 51 | 2.6 | 7.8 | 0.13 | 0.13 | 0.13 | 81 | 1004.2 |
| 20260505191541 | 64 | 200 | 2.6 | 8.7 | 0.11 | 0.11 | 0.11 | 75 | 1003.3 |
| 20260505190035 | 77 | 117 | 4.3 | 19.1 | 0.00 | 0.00 | 0.00 | 38 | 1002.0 |
| 20260505184534 | 77 | 60 | 1.7 | 14.8 | 0.00 | 0.00 | 0.00 | 43 | 1001.2 |